User: anonymous   Login
Location: Unspecified
(0.0000°N, 0.0000°E)
Time: 06:36:12
(UTC+00:00)
Language:

NOSS 7 (H) - Orbit

View from above orbital plane
View from above orbital plane
View from above satellite
View from above satellite

Ground track
Ground track

The orbit data is extracted from the following two-line orbital elements,

1 16631U 86014H   20055.34492997  .00000428  00000-0  48101-4 0  9997
2 16631  63.2969 138.0809 0942838  66.7022 303.0351 13.47317785 30105
Epoch (UTC): 24 February 2020 08:16:41
Eccentricity: 0.0942838
inclination: 63.2969°
perigee height: 379 km
apogee height: 1785 km
right ascension of ascending node: 138.0809°
argument of perigee: 66.7022°
revolutions per day: 13.47317785
mean anomaly at epoch: 303.0351°
orbit number at epoch: 3010

The dashed part of the orbit path shows where the satellite is in the earth's shadow,  

DLR